,,,PA_Meas_PMT16A,,PR_Meas_QMR101_102,,RH_Meas_QMH101,,SR_Meas_QMS101,,TA_Meas_QMH101,,GenWind,,GenWind,
date,time,status,PA,status,PR,status,RH,status,SR,status,TA,status,DirAvg,status,SpdAvg,
2011-05-25, 00:00:04,VALID,999.316,VALID,0,VALID,90.7162,VALID,0,VALID,24.3043,VALID,5,VALID,0,
2011-05-25, 00:01:04,VALID,999.307,VALID,0,VALID,90.6551,VALID,0,VALID,24.3043,VALID,5,VALID,0,
2011-05-25, 00:02:04,VALID,999.3,VALID,0,VALID,90.5636,VALID,0,VALID,24.3043,VALID,5,VALID,0,
2011-05-25, 00:03:04,VALID,999.283,VALID,0,VALID,90.3271,VALID,0,VALID,24.3043,VALID,5,VALID,0.120703,
2011-05-25, 00:04:04,VALID,999.264,VALID,0,VALID,90.0753,VALID,0,VALID,24.3238,VALID,149,VALID,0.773828,
2011-05-25, 00:05:04,VALID,999.288,VALID,0,VALID,89.9609,VALID,0,VALID,24.3433,VALID,135,VALID,0.898047,
2011-05-25, 00:06:04,VALID,999.313,VALID,0,VALID,90.0677,VALID,0,VALID,24.3824,VALID,130,VALID,0.871094,
2011-05-25, 00:07:04,VALID,999.307,VALID,0,VALID,90.1516,VALID,0,VALID,24.4037,VALID,130,VALID,0.729297,
2011-05-25, 00:08:04,VALID,999.297,VALID,0,VALID,90.1974,VALID,0,VALID,24.4019,VALID,130,VALID,0.648047,
2011-05-25, 00:09:04,VALID,999.307,VALID,0,VALID,90.2813,VALID,0,VALID,24.4214,VALID,130,VALID,0.562891,
2011-05-25, 00:10:04,VALID,999.291,VALID,0,VALID,90.2279,VALID,0,VALID,24.4409,VALID,130,VALID,0.453516,
2011-05-25, 00:11:04,VALID,999.271,VALID,0,VALID,90.2126,VALID,0,VALID,24.4214,VALID,130,VALID,0.458984,
2011-05-25, 00:12:04,VALID,999.273,VALID,0,VALID,90.1592,VALID,0,VALID,24.4214,VALID,130,VALID,0.353906,
2011-05-25, 00:13:04,VALID,999.266,VALID,0,VALID,90.06,VALID,0,VALID,24.4214,VALID,130,VALID,0.407422,
2011-05-25, 00:14:04,VALID,999.25,VALID,0,VALID,89.9151,VALID,0,VALID,24.4409,VALID,130,VALID,0.360547,
2011-05-25, 00:15:04,VALID,999.232,VALID,0,VALID,89.7396,VALID,0,VALID,24.4623,VALID,130,VALID,0.353516,
2011-05-25, 00:16:04,VALID,999.22,VALID,0,VALID,89.6175,VALID,0,VALID,24.4818,VALID,130,VALID,0.70625,
2011-05-25, 00:17:04,VALID,999.192,VALID,0,VALID,89.5183,VALID,0,VALID,24.48,VALID,130,VALID,0.508203,
2011-05-25, 00:18:04,VALID,999.193,VALID,0,VALID,89.4497,VALID,0,VALID,24.5209,VALID,130,VALID,0.291016,
2011-05-25, 00:19:04,VALID,999.173,VALID,0,VALID,89.3505,VALID,0,VALID,24.4995,VALID,130,VALID,0.321094,
2011-05-25, 00:20:04,VALID,999.173,VALID,0,VALID,89.2284,VALID,0,VALID,24.5209,VALID,130,VALID,0,
2011-05-25, 00:21:04,VALID,999.216,VALID,0,VALID,89.1292,VALID,0,VALID,24.4995,VALID,130,VALID,0,
2011-05-25, 00:22:04,VALID,999.174,VALID,0,VALID,89.1979,VALID,0,VALID,24.48,VALID,130,VALID,0.0589844,
2011-05-25, 00:23:04,VALID,999.215,VALID,0,VALID,89.2055,VALID,0,VALID,24.48,VALID,130,VALID,0,
2011-05-25, 00:24:04,VALID,999.184,VALID,0,VALID,89.1903,VALID,0,VALID,24.48,VALID,130,VALID,0,
2011-05-25, 00:25:04,VALID,999.184,VALID,0,VALID,89.114,VALID,0,VALID,24.4604,VALID,130,VALID,0.0367187,
2011-05-25, 00:26:04,VALID,999.188,VALID,0,VALID,89.1216,VALID,0,VALID,24.4623,VALID,130,VALID,0.0046875,
2011-05-25, 00:27:04,VALID,999.164,VALID,0,VALID,89.1674,VALID,0,VALID,24.4409,VALID,130,VALID,0.189063,
2011-05-25, 00:28:04,VALID,999.204,VALID,0,VALID,89.3047,VALID,0,VALID,24.4428,VALID,50,VALID,0.487109,
2011-05-25, 00:29:04,VALID,999.176,VALID,0,VALID,89.4497,VALID,0,VALID,24.4214,VALID,50,VALID,0.0285156,
2011-05-25, 00:30:04,VALID,999.186,VALID,0,VALID,89.5565,VALID,0,VALID,24.4019,VALID,50,VALID,0,
2011-05-25, 00:31:04,VALID,999.191,VALID,0,VALID,89.6862,VALID,0,VALID,24.4019,VALID,50,VALID,0,
2011-05-25, 00:32:04,VALID,999.189,VALID,0,VALID,89.7472,VALID,0,VALID,24.3824,VALID,50,VALID,0,
2011-05-25, 00:33:04,VALID,999.194,VALID,0,VALID,89.8006,VALID,0,VALID,24.3629,VALID,50,VALID,0,
2011-05-25, 00:34:04,VALID,999.19,VALID,0,VALID,89.9303,VALID,0,VALID,24.3842,VALID,50,VALID,0,
2011-05-25, 00:35:04,VALID,999.16,VALID,0,VALID,90.0753,VALID,0,VALID,24.3647,VALID,50,VALID,0,
2011-05-25, 00:36:04,VALID,999.176,VALID,0,VALID,90.3118,VALID,0,VALID,24.3062,VALID,50,VALID,0,
2011-05-25, 00:37:04,VALID,999.152,VALID,0,VALID,90.5102,VALID,0,VALID,24.3062,VALID,50,VALID,0,
2011-05-25, 00:38:04,VALID,999.153,VALID,0,VALID,90.6017,VALID,0,VALID,24.2476,VALID,50,VALID,0,
2011-05-25, 00:39:04,VALID,999.16,VALID,0,VALID,90.6933,VALID,0,VALID,24.2067,VALID,50,VALID,0,
2011-05-25, 00:40:04,VALID,999.175,VALID,0,VALID,90.7849,VALID,0,VALID,24.1677,VALID,50,VALID,0,
2011-05-25, 00:41:04,VALID,999.214,VALID,0,VALID,90.8993,VALID,0,VALID,24.1677,VALID,50,VALID,0,
2011-05-25, 00:42:04,VALID,999.202,VALID,0,VALID,90.968,VALID,0,VALID,24.1482,VALID,11,VALID,0,
2011-05-25, 00:43:04,VALID,999.228,VALID,0,VALID,91.0366,VALID,0,VALID,24.1677,VALID,11,VALID,0,
2011-05-25, 00:44:04,VALID,999.212,VALID,0,VALID,91.0977,VALID,0,VALID,24.1482,VALID,11,VALID,0,
2011-05-25, 00:45:04,VALID,999.201,VALID,0,VALID,91.0748,VALID,0,VALID,24.1891,VALID,11,VALID,0,
2011-05-25, 00:46:04,VALID,999.194,VALID,0,VALID,90.9603,VALID,0,VALID,24.1891,VALID,11,VALID,0,
2011-05-25, 00:47:04,VALID,999.193,VALID,0,VALID,90.8306,VALID,0,VALID,24.1677,VALID,11,VALID,0,
2011-05-25, 00:48:04,VALID,999.19,VALID,0,VALID,90.617,VALID,0,VALID,24.1891,VALID,11,VALID,0,
2011-05-25, 00:49:04,VALID,999.156,VALID,0,VALID,90.5102,VALID,0,VALID,24.2086,VALID,11,VALID,0,
2011-05-25, 00:50:04,VALID,999.169,VALID,0,VALID,90.3805,VALID,0,VALID,24.2086,VALID,11,VALID,0,
2011-05-25, 00:51:04,VALID,999.17,VALID,0,VALID,90.3957,VALID,0,VALID,24.2263,VALID,352,VALID,0,
2011-05-25, 00:52:04,VALID,999.161,VALID,0,VALID,90.5178,VALID,0,VALID,24.2476,VALID,328,VALID,0.56875,
2011-05-25, 00:53:04,VALID,999.165,VALID,0,VALID,90.5865,VALID,0,VALID,24.2067,VALID,328,VALID,0.531641,
2011-05-25, 00:54:04,VALID,999.135,VALID,0,VALID,90.6933,VALID,0,VALID,24.1872,VALID,328,VALID,0.422656,
2011-05-25, 00:55:04,VALID,999.119,VALID,0,VALID,90.7772,VALID,0,VALID,24.1677,VALID,328,VALID,0.402734,
2011-05-25, 00:56:04,VALID,999.139,VALID,0,VALID,90.8535,VALID,0,VALID,24.2086,VALID,328,VALID,0.492578,
2011-05-25, 00:57:04,VALID,999.127,VALID,0,VALID,90.9069,VALID,0,VALID,24.1891,VALID,328,VALID,0.461719,
2011-05-25, 00:58:04,VALID,999.115,VALID,0,VALID,90.9603,VALID,0,VALID,24.1677,VALID,328,VALID,0.371484,
2011-05-25, 00:59:04,VALID,999.087,VALID,0,VALID,91.0443,VALID,0,VALID,24.1677,VALID,328,VALID,0,
2011-05-25, 01:00:04,VALID,999.073,VALID,0,VALID,91.0977,VALID,0,VALID,24.1696,VALID,328,VALID,0,
2011-05-25, 01:01:04,VALID,999.049,VALID,0,VALID,91.1663,VALID,0,VALID,24.1714,VALID,328,VALID,0,
2011-05-25, 01:02:04,VALID,999.016,VALID,0,VALID,91.2121,VALID,0,VALID,24.1305,VALID,328,VALID,0,
2011-05-25, 01:03:04,VALID,998.986,VALID,0,VALID,91.2731,VALID,0,VALID,24.1519,VALID,328,VALID,0,
2011-05-25, 01:04:04,VALID,998.968,VALID,0,VALID,91.3189,VALID,0,VALID,24.15,VALID,328,VALID,0,
2011-05-25, 01:05:04,VALID,998.942,VALID,0,VALID,91.3494,VALID,0,VALID,24.111,VALID,328,VALID,0,
2011-05-25, 01:06:04,VALID,998.897,VALID,0,VALID,91.3647,VALID,0,VALID,24.0933,VALID,328,VALID,0,
2011-05-25, 01:07:04,VALID,998.87,VALID,0,VALID,91.296,VALID,0,VALID,24.072,VALID,328,VALID,0,
2011-05-25, 01:08:04,VALID,998.838,VALID,0,VALID,91.1663,VALID,0,VALID,24.111,VALID,328,VALID,0.8875,
2011-05-25, 01:09:04,VALID,998.782,VALID,0,VALID,90.9527,VALID,0,VALID,24.1891,VALID,328,VALID,1.10664,
2011-05-25, 01:10:04,VALID,998.78,VALID,0,VALID,90.7238,VALID,0,VALID,24.2281,VALID,139,VALID,1.10156,
2011-05-25, 01:11:04,VALID,998.726,VALID,0,VALID,90.6017,VALID,0,VALID,24.2281,VALID,136,VALID,1.5082,
2011-05-25, 01:12:04,VALID,998.703,VALID,0,VALID,90.5331,VALID,0,VALID,24.2495,VALID,135,VALID,1.25117,
2011-05-25, 01:13:04,VALID,998.67,VALID,0,VALID,90.617,VALID,0,VALID,24.2476,VALID,135,VALID,1.15742,
2011-05-25, 01:14:04,VALID,998.643,VALID,0,VALID,90.6933,VALID,0,VALID,24.2281,VALID,138,VALID,1.26211,
2011-05-25, 01:15:04,VALID,998.604,VALID,0,VALID,90.7238,VALID,0,VALID,24.2086,VALID,150,VALID,1.10391,
2011-05-25, 01:16:04,VALID,998.623,VALID,0,VALID,90.7467,VALID,0,VALID,24.2104,VALID,156,VALID,0.981641,
2011-05-25, 01:17:04,VALID,998.601,VALID,0,VALID,90.7009,VALID,0,VALID,24.1909,VALID,155,VALID,1.18008,
2011-05-25, 01:18:04,VALID,998.602,VALID,0,VALID,90.6323,VALID,0,VALID,24.1891,VALID,160,VALID,0.982031,
2011-05-25, 01:19:04,VALID,998.596,VALID,0,VALID,90.6094,VALID,0,VALID,24.2299,VALID,171,VALID,0.973047,
2011-05-25, 01:20:04,VALID,998.555,VALID,0,VALID,90.5636,VALID,0,VALID,24.2299,VALID,155,VALID,0.717578,
2011-05-25, 01:21:04,VALID,998.537,VALID,0,VALID,90.3957,VALID,0,VALID,24.2495,VALID,150,VALID,0.724609,
2011-05-25, 01:22:04,VALID,998.493,VALID,0,VALID,90.2737,VALID,0,VALID,24.2281,VALID,155,VALID,0.508984,
2011-05-25, 01:23:04,VALID,998.499,VALID,0,VALID,90.2508,VALID,0,VALID,24.2281,VALID,156,VALID,0.389453,
2011-05-25, 01:24:04,VALID,998.499,VALID,0,VALID,90.2584,VALID,0,VALID,24.2495,VALID,156,VALID,0.307813,
2011-05-25, 01:25:04,VALID,998.504,VALID,0,VALID,90.2737,VALID,0,VALID,24.2495,VALID,147,VALID,0.480859,
2011-05-25, 01:26:04,VALID,998.505,VALID,0,VALID,90.35,VALID,0,VALID,24.269,VALID,147,VALID,0.267969,
2011-05-25, 01:27:04,VALID,998.51,VALID,0,VALID,90.4949,VALID,0,VALID,24.2476,VALID,147,VALID,0,
2011-05-25, 01:28:04,VALID,998.493,VALID,0,VALID,90.6017,VALID,0,VALID,24.2885,VALID,147,VALID,0,
2011-05-25, 01:29:04,VALID,998.523,VALID,0,VALID,90.6857,VALID,0,VALID,24.269,VALID,147,VALID,0,
2011-05-25, 01:30:04,VALID,998.503,VALID,0,VALID,90.6857,VALID,0,VALID,24.2458,VALID,147,VALID,0,
2011-05-25, 01:31:04,VALID,998.488,VALID,0,VALID,90.6551,VALID,0,VALID,24.2263,VALID,97,VALID,0,
2011-05-25, 01:32:04,VALID,998.492,VALID,0,VALID,90.5407,VALID,0,VALID,24.2476,VALID,21,VALID,0.791016,
2011-05-25, 01:33:04,VALID,998.44,VALID,0,VALID,90.4339,VALID,0,VALID,24.1677,VALID,21,VALID,0.948047,
2011-05-25, 01:34:04,VALID,998.415,VALID,0,VALID,90.4415,VALID,0,VALID,24.1891,VALID,21,VALID,0.683984,
2011-05-25, 01:35:04,VALID,998.397,VALID,0,VALID,90.4034,VALID,0,VALID,24.1696,VALID,21,VALID,0.526172,
2011-05-25, 01:36:04,VALID,998.386,VALID,0,VALID,90.3805,VALID,0,VALID,24.15,VALID,21,VALID,0.680859,
2011-05-25, 01:37:04,VALID,998.355,VALID,0,VALID,90.472,VALID,0,VALID,24.1092,VALID,21,VALID,0.637891,
2011-05-25, 01:38:04,VALID,998.354,VALID,0,VALID,90.5865,VALID,0,VALID,24.1092,VALID,21,VALID,0.542969,
2011-05-25, 01:39:04,VALID,998.346,VALID,0,VALID,90.6246,VALID,0,VALID,24.111,VALID,21,VALID,0.577734,
2011-05-25, 01:40:04,VALID,998.339,VALID,0,VALID,90.7467,VALID,0,VALID,24.0506,VALID,21,VALID,0.748828,
2011-05-25, 01:41:04,VALID,998.308,VALID,0,VALID,90.884,VALID,0,VALID,24.0311,VALID,19,VALID,0.776172,
2011-05-25, 01:42:04,VALID,998.296,VALID,0,VALID,91.029,VALID,0,VALID,24.0134,VALID,12,VALID,0.764453,
2011-05-25, 01:43:04,VALID,998.305,VALID,0,VALID,91.1282,VALID,0,VALID,23.9531,VALID,12,VALID,0.69375,
2011-05-25, 01:44:04,VALID,998.28,VALID,0,VALID,91.2045,VALID,0,VALID,23.9354,VALID,12,VALID,0.841016,
2011-05-25, 01:45:04,VALID,998.274,VALID,0,VALID,91.2503,VALID,0,VALID,23.875,VALID,12,VALID,0.80625,
2011-05-25, 01:46:04,VALID,998.259,VALID,0,VALID,91.3342,VALID,0,VALID,23.8555,VALID,12,VALID,0.964453,
2011-05-25, 01:47:04,VALID,998.221,VALID,0,VALID,91.4257,VALID,0,VALID,23.8768,VALID,15,VALID,0.975,
2011-05-25, 01:48:04,VALID,998.225,VALID,0,VALID,91.4181,VALID,0,VALID,23.8165,VALID,17,VALID,0.885547,
2011-05-25, 01:49:04,VALID,998.238,VALID,0,VALID,91.4257,VALID,0,VALID,23.7988,VALID,17,VALID,0.837109,
2011-05-25, 01:50:04,VALID,998.231,VALID,0,VALID,91.4563,VALID,0,VALID,23.7597,VALID,17,VALID,0.746094,
2011-05-25, 01:51:04,VALID,998.219,VALID,0,VALID,91.4563,VALID,0,VALID,23.7384,VALID,17,VALID,0.599609,
2011-05-25, 01:52:04,VALID,998.234,VALID,0,VALID,91.4868,VALID,0,VALID,23.6994,VALID,17,VALID,0.634766,
2011-05-25, 01:53:04,VALID,998.214,VALID,0,VALID,91.5326,VALID,0.112286,VALID,23.6799,VALID,17,VALID,0.727344,
2011-05-25, 01:54:04,VALID,998.233,VALID,0,VALID,91.5554,VALID,0,VALID,23.6409,VALID,17,VALID,0.604297,
2011-05-25, 01:55:04,VALID,998.212,VALID,0,VALID,91.6088,VALID,0.112286,VALID,23.6409,VALID,17,VALID,0.682422,
2011-05-25, 01:56:04,VALID,998.224,VALID,0,VALID,91.6623,VALID,0,VALID,23.6604,VALID,38,VALID,0.797656,
2011-05-25, 01:57:04,VALID,998.204,VALID,0,VALID,91.708,VALID,0,VALID,23.6604,VALID,42,VALID,0.753516,
2011-05-25, 01:58:04,VALID,998.202,VALID,0,VALID,91.6546,VALID,0,VALID,23.6799,VALID,42,VALID,0.84375,
2011-05-25, 01:59:04,VALID,998.195,VALID,0,VALID,91.5249,VALID,0,VALID,23.7012,VALID,42,VALID,0.671484,
2011-05-25, 02:00:04,VALID,998.14,VALID,0,VALID,91.3723,VALID,0,VALID,23.7012,VALID,42,VALID,0.730078,
2011-05-25, 02:01:04,VALID,998.137,VALID,0,VALID,91.1968,VALID,0,VALID,23.6604,VALID,42,VALID,0.741797,
2011-05-25, 02:02:04,VALID,998.125,VALID,0,VALID,91.0595,VALID,0,VALID,23.6604,VALID,42,VALID,0.679688,
2011-05-25, 02:03:04,VALID,998.093,VALID,0,VALID,90.9451,VALID,0,VALID,23.6817,VALID,42,VALID,0.858984,
2011-05-25, 02:04:04,VALID,998.068,VALID,0,VALID,90.8688,VALID,0,VALID,23.6817,VALID,42,VALID,0.750391,
2011-05-25, 02:05:04,VALID,998.06,VALID,0,VALID,90.7925,VALID,0,VALID,23.6604,VALID,42,VALID,0.634375,
2011-05-25, 02:06:04,VALID,998.034,VALID,0,VALID,90.7543,VALID,0,VALID,23.6604,VALID,42,VALID,0.360938,
2011-05-25, 02:07:04,VALID,998.007,VALID,0,VALID,90.7925,VALID,0.112286,VALID,23.6799,VALID,42,VALID,0,
2011-05-25, 02:08:04,VALID,998.035,VALID,0,VALID,90.8764,VALID,0,VALID,23.7012,VALID,42,VALID,0,
2011-05-25, 02:09:04,VALID,998.019,VALID,0,VALID,90.9985,VALID,0,VALID,23.6994,VALID,42,VALID,0,
2011-05-25, 02:10:04,VALID,997.987,VALID,0,VALID,91.1053,VALID,0,VALID,23.7189,VALID,42,VALID,0,
2011-05-25, 02:11:04,VALID,997.998,VALID,0,VALID,91.1434,VALID,0,VALID,23.7207,VALID,42,VALID,0,
2011-05-25, 02:12:04,VALID,998.013,VALID,0,VALID,91.2197,VALID,0,VALID,23.7012,VALID,42,VALID,0,
2011-05-25, 02:13:04,VALID,998.001,VALID,0,VALID,91.3037,VALID,0,VALID,23.6994,VALID,42,VALID,0,
2011-05-25, 02:14:04,VALID,998.021,VALID,0,VALID,91.38,VALID,0,VALID,23.6799,VALID,42,VALID,0,
2011-05-25, 02:15:04,VALID,998.01,VALID,0,VALID,91.4334,VALID,0,VALID,23.6817,VALID,42,VALID,0,
2011-05-25, 02:16:04,VALID,998.014,VALID,0,VALID,91.4334,VALID,0,VALID,23.6622,VALID,42,VALID,0.363672,
2011-05-25, 02:17:04,VALID,998.004,VALID,0,VALID,91.4257,VALID,0,VALID,23.6214,VALID,42,VALID,0.370703,
2011-05-25, 02:18:04,VALID,998.026,VALID,0,VALID,91.4028,VALID,0,VALID,23.6214,VALID,42,VALID,0.325391,
2011-05-25, 02:19:04,VALID,998.009,VALID,0,VALID,91.3876,VALID,0,VALID,23.6232,VALID,42,VALID,0.261719,
2011-05-25, 02:20:04,VALID,997.994,VALID,0,VALID,91.3952,VALID,0.112286,VALID,23.5628,VALID,42,VALID,0.0398437,
2011-05-25, 02:21:04,VALID,997.977,VALID,0,VALID,91.3876,VALID,0,VALID,23.5433,VALID,42,VALID,0,
2011-05-25, 02:22:04,VALID,997.96,VALID,0,VALID,91.4028,VALID,0.112286,VALID,23.5451,VALID,42,VALID,0,
2011-05-25, 02:23:04,VALID,997.941,VALID,0,VALID,91.4486,VALID,0,VALID,23.5043,VALID,42,VALID,0,
2011-05-25, 02:24:04,VALID,997.932,VALID,0,VALID,91.502,VALID,0,VALID,23.5061,VALID,42,VALID,0,
2011-05-25, 02:25:04,VALID,997.928,VALID,0,VALID,91.6088,VALID,0,VALID,23.4866,VALID,42,VALID,0,
2011-05-25, 02:26:04,VALID,997.895,VALID,0,VALID,91.7385,VALID,0,VALID,23.4848,VALID,42,VALID,0.459375,
2011-05-25, 02:27:04,VALID,997.907,VALID,0,VALID,91.8377,VALID,0,VALID,23.5256,VALID,42,VALID,0.606641,
2011-05-25, 02:28:04,VALID,997.893,VALID,0,VALID,91.9751,VALID,0.112286,VALID,23.5451,VALID,113,VALID,0.746875,
2011-05-25, 02:29:04,VALID,997.843,VALID,0,VALID,92.0819,VALID,0,VALID,23.5451,VALID,113,VALID,0.654688,
2011-05-25, 02:30:04,VALID,997.846,VALID,0,VALID,92.1658,VALID,0.112286,VALID,23.5451,VALID,113,VALID,0.384766,
2011-05-25, 02:31:04,VALID,997.853,VALID,0,VALID,92.2421,VALID,0,VALID,23.5451,VALID,113,VALID,0.275391,
2011-05-25, 02:32:04,VALID,997.833,VALID,0,VALID,92.2421,VALID,0,VALID,23.5256,VALID,113,VALID,0.223047,
2011-05-25, 02:33:04,VALID,997.87,VALID,0,VALID,92.2421,VALID,0,VALID,23.4653,VALID,113,VALID,0.246094,
2011-05-25, 02:34:04,VALID,997.879,VALID,0,VALID,92.2879,VALID,0.112286,VALID,23.4653,VALID,113,VALID,0.453906,
2011-05-25, 02:35:04,VALID,997.882,VALID,0,VALID,92.3489,VALID,0,VALID,23.5061,VALID,113,VALID,0.428125,
2011-05-25, 02:36:04,VALID,997.887,VALID,0,VALID,92.4176,VALID,0,VALID,23.5256,VALID,112,VALID,0.389844,
2011-05-25, 02:37:04,VALID,997.905,VALID,0,VALID,92.471,VALID,0.112286,VALID,23.5043,VALID,112,VALID,0.533984,
2011-05-25, 02:38:04,VALID,997.885,VALID,0,VALID,92.5015,VALID,0,VALID,23.5238,VALID,112,VALID,0.687109,
2011-05-25, 02:39:04,VALID,997.893,VALID,0,VALID,92.5015,VALID,0,VALID,23.5256,VALID,112,VALID,0.654297,
2011-05-25, 02:40:04,VALID,997.901,VALID,0,VALID,92.5015,VALID,0,VALID,23.5451,VALID,145,VALID,0.863672,
2011-05-25, 02:41:04,VALID,997.897,VALID,0,VALID,92.4863,VALID,0,VALID,23.5451,VALID,145,VALID,0.697266,
2011-05-25, 02:42:04,VALID,997.925,VALID,0,VALID,92.4405,VALID,0,VALID,23.5451,VALID,145,VALID,0.645312,
2011-05-25, 02:43:04,VALID,997.9,VALID,0,VALID,92.3947,VALID,0,VALID,23.5256,VALID,144,VALID,0.740234,
2011-05-25, 02:44:04,VALID,997.895,VALID,0,VALID,92.3108,VALID,0,VALID,23.5256,VALID,143,VALID,1.21055,
2011-05-25, 02:45:04,VALID,997.898,VALID,0,VALID,92.265,VALID,0,VALID,23.5256,VALID,147,VALID,0.907812,
2011-05-25, 02:46:04,VALID,997.888,VALID,0,VALID,92.204,VALID,0,VALID,23.5451,VALID,150,VALID,0.888281,
2011-05-25, 02:47:04,VALID,997.867,VALID,0,VALID,92.0971,VALID,0,VALID,23.5646,VALID,144,VALID,0.968359,
2011-05-25, 02:48:04,VALID,997.863,VALID,0,VALID,91.9674,VALID,0,VALID,23.5646,VALID,144,VALID,0.942187,
2011-05-25, 02:49:04,VALID,997.886,VALID,0,VALID,91.8301,VALID,0,VALID,23.5841,VALID,145,VALID,1.03359,
2011-05-25, 02:50:04,VALID,997.873,VALID,0,VALID,91.6699,VALID,0,VALID,23.6232,VALID,143,VALID,0.945313,
2011-05-25, 02:51:04,VALID,997.847,VALID,0,VALID,91.5097,VALID,0,VALID,23.6214,VALID,144,VALID,1.19648,
2011-05-25, 02:52:04,VALID,997.879,VALID,0,VALID,91.3723,VALID,0,VALID,23.6427,VALID,142,VALID,0.940625,
2011-05-25, 02:53:04,VALID,997.831,VALID,0,VALID,91.2274,VALID,0,VALID,23.6622,VALID,134,VALID,1.25273,
2011-05-25, 02:54:04,VALID,997.796,VALID,0,VALID,91.1511,VALID,0,VALID,23.6622,VALID,139,VALID,1.14805,
2011-05-25, 02:55:04,VALID,997.799,VALID,0,VALID,91.0519,VALID,0,VALID,23.6799,VALID,139,VALID,0.935547,
2011-05-25, 02:56:04,VALID,997.756,VALID,0,VALID,90.8917,VALID,0,VALID,23.6799,VALID,137,VALID,0.832422,
2011-05-25, 02:57:04,VALID,997.743,VALID,0,VALID,90.7543,VALID,0,VALID,23.7012,VALID,125,VALID,0.874219,
2011-05-25, 02:58:04,VALID,997.724,VALID,0,VALID,90.6323,VALID,0,VALID,23.7012,VALID,125,VALID,1.27617,
2011-05-25, 02:59:04,VALID,997.738,VALID,0,VALID,90.5102,VALID,0,VALID,23.6799,VALID,120,VALID,1.18359,
2011-05-25, 03:00:04,VALID,997.75,VALID,0,VALID,90.411,VALID,0,VALID,23.7207,VALID,125,VALID,1.09922,
2011-05-25, 03:01:04,VALID,997.766,VALID,0,VALID,90.3118,VALID,0,VALID,23.6994,VALID,130,VALID,1.09297,
2011-05-25, 03:02:04,VALID,997.795,VALID,0,VALID,90.1745,VALID,0,VALID,23.7189,VALID,128,VALID,0.911328,
2011-05-25, 03:03:04,VALID,997.789,VALID,0,VALID,90.0143,VALID,0,VALID,23.7189,VALID,137,VALID,0.593359,
2011-05-25, 03:04:04,VALID,997.818,VALID,0,VALID,89.8922,VALID,0,VALID,23.7189,VALID,137,VALID,0.0179687,
2011-05-25, 03:05:04,VALID,997.818,VALID,0,VALID,89.8846,VALID,0,VALID,23.7207,VALID,133,VALID,0.141406,
2011-05-25, 03:06:04,VALID,997.84,VALID,0,VALID,89.9532,VALID,0,VALID,23.6799,VALID,108,VALID,0.617578,
2011-05-25, 03:07:04,VALID,997.816,VALID,0,VALID,90.0371,VALID,0,VALID,23.6817,VALID,108,VALID,0.425781,
2011-05-25, 03:08:04,VALID,997.876,VALID,0,VALID,90.0677,VALID,0,VALID,23.6604,VALID,109,VALID,0.465625,
2011-05-25, 03:09:04,VALID,997.847,VALID,0,VALID,90.1058,VALID,0,VALID,23.6214,VALID,109,VALID,0.254297,
2011-05-25, 03:10:04,VALID,997.88,VALID,0,VALID,90.205,VALID,0,VALID,23.6232,VALID,111,VALID,0.651172,
2011-05-25, 03:11:04,VALID,997.874,VALID,0,VALID,90.2813,VALID,0.112286,VALID,23.6019,VALID,113,VALID,0.302344,
2011-05-25, 03:12:04,VALID,997.914,VALID,0,VALID,90.2966,VALID,0,VALID,23.6232,VALID,113,VALID,0.356641,
2011-05-25, 03:13:04,VALID,997.97,VALID,0,VALID,90.3576,VALID,0.112286,VALID,23.6019,VALID,113,VALID,0.239063,
2011-05-25, 03:14:04,VALID,997.942,VALID,0,VALID,90.266,VALID,0,VALID,23.6232,VALID,113,VALID,0.065625,
2011-05-25, 03:15:04,VALID,998.008,VALID,0,VALID,90.2203,VALID,0.112286,VALID,23.6036,VALID,113,VALID,0,
2011-05-25, 03:16:04,VALID,997.984,VALID,0,VALID,90.2737,VALID,0,VALID,23.5841,VALID,112,VALID,0.434766,
2011-05-25, 03:17:04,VALID,998.014,VALID,0,VALID,90.3805,VALID,0,VALID,23.5841,VALID,112,VALID,0.308594,
2011-05-25, 03:18:04,VALID,998.013,VALID,0,VALID,90.4949,VALID,0,VALID,23.6036,VALID,70,VALID,0.270312,
2011-05-25, 03:19:04,VALID,998.036,VALID,0,VALID,90.5712,VALID,0,VALID,23.6036,VALID,70,VALID,0.130469,
2011-05-25, 03:20:04,VALID,998.031,VALID,0,VALID,90.5331,VALID,0,VALID,23.6214,VALID,53,VALID,0.543359,
2011-05-25, 03:21:04,VALID,998.033,VALID,0,VALID,90.4644,VALID,0,VALID,23.6817,VALID,51,VALID,0.225,
2011-05-25, 03:22:04,VALID,998.062,VALID,0,VALID,90.3805,VALID,0,VALID,23.6817,VALID,51,VALID,0.328906,
2011-05-25, 03:23:04,VALID,998.078,VALID,0,VALID,90.3423,VALID,0,VALID,23.7012,VALID,51,VALID,0.0351563,
2011-05-25, 03:24:04,VALID,998.07,VALID,0,VALID,90.1668,VALID,0,VALID,23.6817,VALID,51,VALID,0.145703,
2011-05-25, 03:25:04,VALID,998.093,VALID,0,VALID,90.06,VALID,0,VALID,23.6817,VALID,51,VALID,0.405469,
2011-05-25, 03:26:04,VALID,998.09,VALID,0,VALID,90.1134,VALID,0,VALID,23.6604,VALID,50,VALID,0.648438,
2011-05-25, 03:27:04,VALID,998.098,VALID,0,VALID,90.2355,VALID,0,VALID,23.6622,VALID,25,VALID,0.716406,
2011-05-25, 03:28:04,VALID,998.121,VALID,0,VALID,90.2126,VALID,0,VALID,23.6409,VALID,38,VALID,0.445313,
2011-05-25, 03:29:04,VALID,998.132,VALID,0,VALID,90.0906,VALID,0,VALID,23.6409,VALID,38,VALID,0.486719,
2011-05-25, 03:30:04,VALID,998.175,VALID,0,VALID,89.8693,VALID,0,VALID,23.6214,VALID,38,VALID,0.607813,
2011-05-25, 03:31:04,VALID,998.197,VALID,0,VALID,89.8311,VALID,0,VALID,23.5823,VALID,38,VALID,0.479297,
2011-05-25, 03:32:04,VALID,998.185,VALID,0,VALID,89.8693,VALID,0,VALID,23.5628,VALID,38,VALID,0.607422,
2011-05-25, 03:33:04,VALID,998.212,VALID,0,VALID,89.9532,VALID,0.112286,VALID,23.5043,VALID,24,VALID,0.825781,
2011-05-25, 03:34:04,VALID,998.187,VALID,0,VALID,90.0982,VALID,0,VALID,23.5061,VALID,24,VALID,0.778906,
2011-05-25, 03:35:04,VALID,998.196,VALID,0,VALID,90.1058,VALID,0,VALID,23.4458,VALID,24,VALID,0.860937,
2011-05-25, 03:36:04,VALID,998.208,VALID,0,VALID,90.3805,VALID,0,VALID,23.4475,VALID,24,VALID,0.846094,
2011-05-25, 03:37:04,VALID,998.208,VALID,0,VALID,90.4949,VALID,0,VALID,23.428,VALID,28,VALID,0.660156,
2011-05-25, 03:38:04,VALID,998.224,VALID,0,VALID,90.556,VALID,0,VALID,23.4085,VALID,28,VALID,0.664063,
2011-05-25, 03:39:04,VALID,998.255,VALID,0,VALID,90.6628,VALID,0,VALID,23.389,VALID,54,VALID,0.671484,
2011-05-25, 03:40:04,VALID,998.254,VALID,0,VALID,90.7162,VALID,0,VALID,23.3482,VALID,54,VALID,0.514063,
2011-05-25, 03:41:04,VALID,998.269,VALID,0,VALID,90.7772,VALID,0,VALID,23.3092,VALID,54,VALID,0.435937,
2011-05-25, 03:42:04,VALID,998.277,VALID,0,VALID,90.8764,VALID,0,VALID,23.2897,VALID,54,VALID,0.507422,
2011-05-25, 03:43:04,VALID,998.267,VALID,0,VALID,90.9985,VALID,0,VALID,23.2897,VALID,54,VALID,0.528906,
2011-05-25, 03:44:04,VALID,998.275,VALID,0,VALID,91.0595,VALID,0,VALID,23.2915,VALID,54,VALID,0.475781,
2011-05-25, 03:45:04,VALID,998.313,VALID,0,VALID,91.1434,VALID,0,VALID,23.2915,VALID,54,VALID,0.395703,
2011-05-25, 03:46:04,VALID,998.302,VALID,0,VALID,91.1358,VALID,0,VALID,23.2507,VALID,54,VALID,0.198047,
2011-05-25, 03:47:04,VALID,998.307,VALID,0,VALID,91.1511,VALID,0.112286,VALID,23.2507,VALID,54,VALID,0,
2011-05-25, 03:48:04,VALID,998.316,VALID,0,VALID,91.1968,VALID,0,VALID,23.2524,VALID,54,VALID,0,